Weather in Stantsiya Kamenny Klyuch

Russia / Kemerovo Oblast     54°05′59″N   86°08′04″E
temp.,
°C
wind,
m/s
gust,
m/s
humid.,
%
clouds,
%
prec.,
mm/h
press.,
hPa
HPBL,
m
22 january, sat
sat2201:00−19n119927 0.0 103210
04:00−19nne009927 0.0 10319
07:00−19s00995 0.0 10329
10:00−18s11975 0.0 10339
13:00−8s11835 0.0 1032175
16:00−8ese01905 0.0 103276
19:00−17sw1110069 0.0 10359
22:00−17sw1199100 0.0 10359
23 january, sun
sun2301:00−17sw009978 0.0 10359
04:00−19w0110066 0.0 10359
07:00−18sw1199100 0.0 10359
10:00−19wsw119974 0.0 10369
13:00−10sw118448 0.0 1034195
16:00−9sw018940 0.0 1033187
19:00−18wsw11100100 0.0 10369
22:00−17wsw1199100 0.0 103611
24 january, mon
mon2401:00−14sw1196100 0.1 103565
04:00−14nw0196100 1.1 103594
07:00−13n1297100 1.9 1035141
10:00−15n129895 0.3 103764
13:00−13n1291100 0.4 1038301
16:00−13nne119287 0.0 1039195
19:00−20wsw0010092 0.1 10419
22:00−21sw1110092 0.0 10429
25 january, tue
tue2501:00−22ssw1110093 0.1 10439
04:00−23sw1110095 0.0 104210
07:00−21sw1110094 0.0 104211
10:00−19ssw1199100 0.0 104119
13:00−13ssw118992 0.0 1039243
16:00−12w0190100 0.0 1037209
19:00−19wsw11100100 0.1 10399
22:00−20wsw1110098 0.0 10399
26 january, wed
wed2601:00−19sw1110093 0.0 10389
04:00−20ssw0010055 0.0 10389
07:00−20s0010088 0.0 10379
10:00−19s119997 0.0 103714
13:00−12sse118976 0.0 1034229
16:00−11ese119092 0.0 1033201
19:00−18se0110090 0.0 10359
22:00−19s11100100 0.0 10359